Time,TemperatureF,DewpointF,PressureIn,WindDirection,WindDirectionDegrees,WindSpeedMPH,WindSpeedGustMPH,Humidity,HourlyPrecipIn,Conditions,Clouds,dailyrainin,SoftwareType,DateUTC
2013-01-06 00:13:00,39.1,30.0,30.18,SW,217,1.0,4.0,70,0.00,,,0.00,weatherlink.com 1.10,2013-01-06 05:13:00,
2013-01-06 00:27:00,39.3,30.0,30.18,SSW,207,0.0,5.0,70,0.00,,,0.00,weatherlink.com 1.10,2013-01-06 05:27:00,
2013-01-06 00:42:00,39.4,30.0,30.17,SW,226,2.0,8.0,69,0.00,,,0.00,weatherlink.com 1.10,2013-01-06 05:42:00,
2013-01-06 00:57:00,39.2,30.0,30.16,WSW,256,2.0,5.0,69,0.00,,,0.00,weatherlink.com 1.10,2013-01-06 05:57:00,
2013-01-06 01:12:00,39.3,30.0,30.17,SSW,204,2.0,5.0,69,0.00,,,0.00,weatherlink.com 1.10,2013-01-06 06:12:00,
2013-01-06 01:27:00,39.1,30.0,30.16,SW,226,0.0,4.0,70,0.00,,,0.00,weatherlink.com 1.10,2013-01-06 06:27:00,
2013-01-06 01:42:00,38.9,30.0,30.16,SW,231,1.0,6.0,70,0.00,,,0.00,weatherlink.com 1.10,2013-01-06 06:42:00,
2013-01-06 01:57:00,38.2,30.0,30.16,SW,236,1.0,4.0,71,0.00,,,0.00,weatherlink.com 1.10,2013-01-06 06:57:00,
2013-01-06 02:13:00,37.9,30.0,30.16,SW,218,5.0,5.0,72,0.00,,,0.00,weatherlink.com 1.10,2013-01-06 07:13:00,
2013-01-06 02:28:00,37.8,30.0,30.15,SSW,197,7.0,7.0,72,0.00,,,0.00,weatherlink.com 1.10,2013-01-06 07:28:00,
2013-01-06 02:43:00,38.1,30.0,30.15,South,177,1.0,6.0,72,0.00,,,0.00,weatherlink.com 1.10,2013-01-06 07:43:00,
2013-01-06 02:58:00,38.5,30.0,30.15,SW,215,4.0,8.0,71,0.00,,,0.00,weatherlink.com 1.10,2013-01-06 07:58:00,
2013-01-06 03:13:00,38.6,30.0,30.14,SSW,204,2.0,7.0,71,0.00,,,0.00,weatherlink.com 1.10,2013-01-06 08:13:00,
2013-01-06 03:28:00,38.6,30.0,30.14,WSW,245,2.0,5.0,71,0.00,,,0.00,weatherlink.com 1.10,2013-01-06 08:28:00,
2013-01-06 03:43:00,38.6,30.0,30.13,WSW,249,0.0,7.0,71,0.00,,,0.00,weatherlink.com 1.10,2013-01-06 08:43:00,
2013-01-06 03:58:00,38.7,30.0,30.13,West,264,1.0,7.0,72,0.00,,,0.00,weatherlink.com 1.10,2013-01-06 08:58:00,
2013-01-06 04:13:00,38.8,30.0,30.13,SSW,203,2.0,8.0,72,0.00,,,0.00,weatherlink.com 1.10,2013-01-06 09:13:00,
2013-01-06 04:28:00,38.8,31.0,30.12,WSW,239,3.0,6.0,73,0.00,,,0.00,weatherlink.com 1.10,2013-01-06 09:28:00,
2013-01-06 04:43:00,38.9,31.0,30.12,West,280,7.0,11.0,73,0.00,,,0.00,weatherlink.com 1.10,2013-01-06 09:43:00,
2013-01-06 04:58:00,38.8,31.0,30.11,WSW,248,2.0,14.0,73,0.00,,,0.00,weatherlink.com 1.10,2013-01-06 09:58:00,
2013-01-06 05:13:00,38.7,31.0,30.11,SE,130,3.0,10.0,74,0.00,,,0.00,weatherlink.com 1.10,2013-01-06 10:13:00,
2013-01-06 05:28:00,38.7,31.0,30.11,SSW,205,2.0,9.0,74,0.00,,,0.00,weatherlink.com 1.10,2013-01-06 10:28:00,
2013-01-06 05:43:00,38.5,31.0,30.10,WSW,250,4.0,7.0,75,0.00,,,0.00,weatherlink.com 1.10,2013-01-06 10:43:00,
2013-01-06 05:58:00,38.6,31.0,30.10,SW,221,2.0,6.0,75,0.00,,,0.00,weatherlink.com 1.10,2013-01-06 10:58:00,
2013-01-06 06:13:00,38.6,32.0,30.10,WNW,286,2.0,6.0,76,0.00,,,0.00,weatherlink.com 1.10,2013-01-06 11:13:00,
2013-01-06 06:28:00,38.6,32.0,30.10,West,266,2.0,9.0,76,0.00,,,0.00,weatherlink.com 1.10,2013-01-06 11:28:00,
2013-01-06 06:43:00,38.6,32.0,30.10,WSW,242,1.0,9.0,76,0.00,,,0.00,weatherlink.com 1.10,2013-01-06 11:43:00,
2013-01-06 06:58:00,38.7,32.0,30.11,West,267,1.0,6.0,77,0.00,,,0.00,weatherlink.com 1.10,2013-01-06 11:58:00,
2013-01-06 07:13:00,38.7,32.0,30.11,SW,223,1.0,5.0,77,0.00,,,0.00,weatherlink.com 1.10,2013-01-06 12:13:00,
2013-01-06 07:28:00,38.7,32.0,30.10,SW,226,2.0,8.0,78,0.00,,,0.00,weatherlink.com 1.10,2013-01-06 12:28:00,
2013-01-06 07:43:00,38.7,32.0,30.11,WNW,287,1.0,5.0,78,0.00,,,0.00,weatherlink.com 1.10,2013-01-06 12:43:00,
2013-01-06 07:58:00,38.8,33.0,30.11,West,263,1.0,7.0,79,0.00,,,0.00,weatherlink.com 1.10,2013-01-06 12:58:00,
2013-01-06 08:13:00,38.8,33.0,30.11,West,263,1.0,6.0,79,0.00,,,0.00,weatherlink.com 1.10,2013-01-06 13:13:00,
2013-01-06 08:28:00,38.8,33.0,30.11,WSW,241,3.0,7.0,79,0.00,,,0.00,weatherlink.com 1.10,2013-01-06 13:28:00,
2013-01-06 08:43:00,38.9,33.0,30.11,WSW,243,4.0,6.0,79,0.00,,,0.00,weatherlink.com 1.10,2013-01-06 13:43:00,
2013-01-06 08:58:00,39.1,33.0,30.11,WNW,284,1.0,10.0,79,0.00,,,0.00,weatherlink.com 1.10,2013-01-06 13:58:00,
2013-01-06 09:13:00,39.3,33.0,30.12,NE,34,2.0,8.0,79,0.00,,,0.00,weatherlink.com 1.10,2013-01-06 14:13:00,
2013-01-06 09:28:00,39.5,33.0,30.12,WSW,253,4.0,7.0,78,0.00,,,0.00,weatherlink.com 1.10,2013-01-06 14:28:00,
2013-01-06 09:43:00,39.8,33.0,30.12,SW,232,8.0,11.0,78,0.00,,,0.00,weatherlink.com 1.10,2013-01-06 14:43:00,
2013-01-06 09:58:00,40.0,33.0,30.12,NW,307,5.0,13.0,77,0.00,,,0.00,weatherlink.com 1.10,2013-01-06 14:58:00,
2013-01-06 10:13:00,40.2,34.0,30.13,WSW,253,4.0,9.0,77,0.00,,,0.00,weatherlink.com 1.10,2013-01-06 15:13:00,
2013-01-06 10:28:00,40.4,34.0,30.13,West,263,2.0,10.0,77,0.00,,,0.00,weatherlink.com 1.10,2013-01-06 15:28:00,
2013-01-06 10:43:00,40.6,34.0,30.12,WSW,248,1.0,7.0,78,0.00,,,0.00,weatherlink.com 1.10,2013-01-06 15:43:00,
2013-01-06 10:58:00,40.5,34.0,30.12,WNW,295,2.0,11.0,77,0.00,,,0.00,weatherlink.com 1.10,2013-01-06 15:58:00,
2013-01-06 11:13:00,40.2,34.0,30.11,West,281,3.0,7.0,78,0.00,,,0.00,weatherlink.com 1.10,2013-01-06 16:13:00,
2013-01-06 11:28:00,40.0,34.0,30.11,SSW,204,1.0,11.0,78,0.00,,,0.00,weatherlink.com 1.10,2013-01-06 16:28:00,
2013-01-06 11:43:00,39.9,34.0,30.10,SW,222,4.0,12.0,79,0.00,,,0.00,weatherlink.com 1.10,2013-01-06 16:43:00,
2013-01-06 11:59:00,40.0,34.0,30.10,WSW,248,4.0,10.0,78,0.00,,,0.00,weatherlink.com 1.10,2013-01-06 16:59:00,
2013-01-06 12:14:00,40.0,34.0,30.09,West,277,7.0,12.0,78,0.00,,,0.00,weatherlink.com 1.10,2013-01-06 17:14:00,
2013-01-06 12:29:00,40.2,33.0,30.09,NW,314,3.0,7.0,76,0.00,,,0.00,weatherlink.com 1.10,2013-01-06 17:29:00,
2013-01-06 12:44:00,40.1,32.0,30.09,WSW,245,7.0,10.0,74,0.00,,,0.00,weatherlink.com 1.10,2013-01-06 17:44:00,
2013-01-06 13:03:00,40.0,32.0,30.10,NNE,22,3.0,9.0,73,0.00,,,0.00,weatherlink.com 1.10,2013-01-06 18:03:00,
2013-01-06 13:14:00,39.5,31.0,30.10,West,271,4.0,14.0,71,0.00,,,0.00,weatherlink.com 1.10,2013-01-06 18:14:00,
2013-01-06 13:29:00,39.3,30.0,30.10,WNW,291,5.0,17.0,70,0.00,,,0.00,weatherlink.com 1.10,2013-01-06 18:29:00,
2013-01-06 13:44:00,39.1,30.0,30.10,WNW,287,9.0,16.0,69,0.00,,,0.00,weatherlink.com 1.10,2013-01-06 18:44:00,
2013-01-06 14:00:00,38.0,29.0,30.12,NW,309,6.0,11.0,70,0.00,,,0.00,weatherlink.com 1.10,2013-01-06 19:00:00,
2013-01-06 14:15:00,37.0,28.0,30.12,NW,323,1.0,10.0,71,0.00,,,0.00,weatherlink.com 1.10,2013-01-06 19:15:00,
2013-01-06 14:30:00,36.8,28.0,30.13,WSW,252,3.0,11.0,71,0.00,,,0.00,weatherlink.com 1.10,2013-01-06 19:30:00,
2013-01-06 14:45:00,36.7,27.0,30.15,NW,305,5.0,17.0,69,0.00,,,0.00,weatherlink.com 1.10,2013-01-06 19:45:00,
2013-01-06 15:00:00,36.6,28.0,30.15,NW,323,5.0,10.0,70,0.00,,,0.00,weatherlink.com 1.10,2013-01-06 20:00:00,
2013-01-06 15:30:00,36.5,27.0,30.17,ENE,78,0.0,11.0,69,0.00,,,0.00,weatherlink.com 1.10,2013-01-06 20:30:00,
2013-01-06 15:45:00,36.3,26.0,30.18,WNW,288,5.0,13.0,67,0.00,,,0.00,weatherlink.com 1.10,2013-01-06 20:45:00,
2013-01-06 16:00:00,36.2,27.0,30.19,West,274,2.0,12.0,68,0.00,,,0.00,weatherlink.com 1.10,2013-01-06 21:00:00,
2013-01-06 16:15:00,36.0,26.0,30.20,North,11,3.0,9.0,68,0.00,,,0.00,weatherlink.com 1.10,2013-01-06 21:15:00,
2013-01-06 16:30:00,35.8,27.0,30.21,West,272,8.0,11.0,69,0.00,,,0.00,weatherlink.com 1.10,2013-01-06 21:30:00,
2013-01-06 16:45:00,35.5,27.0,30.22,WNW,284,2.0,11.0,70,0.00,,,0.00,weatherlink.com 1.10,2013-01-06 21:45:00,
2013-01-06 17:00:00,35.0,25.0,30.22,WNW,287,6.0,17.0,68,0.00,,,0.00,weatherlink.com 1.10,2013-01-06 22:00:00,
2013-01-06 17:15:00,34.7,25.0,30.23,WNW,295,2.0,10.0,68,0.00,,,0.00,weatherlink.com 1.10,2013-01-06 22:15:00,
2013-01-06 17:30:00,34.5,25.0,30.24,WNW,294,5.0,12.0,68,0.00,,,0.00,weatherlink.com 1.10,2013-01-06 22:30:00,
2013-01-06 17:45:00,34.2,25.0,30.25,NNW,342,1.0,7.0,70,0.00,,,0.00,weatherlink.com 1.10,2013-01-06 22:45:00,
2013-01-06 18:00:00,33.7,25.0,30.27,West,273,9.0,12.0,70,0.00,,,0.00,weatherlink.com 1.10,2013-01-06 23:00:00,
2013-01-06 18:31:00,32.5,24.0,30.29,West,266,0.0,6.0,71,0.00,,,0.00,weatherlink.com 1.10,2013-01-06 23:31:00,
2013-01-06 18:46:00,32.4,24.0,30.29,NW,308,0.0,7.0,71,0.00,,,0.00,weatherlink.com 1.10,2013-01-06 23:46:00,
2013-01-06 19:01:00,32.4,24.0,30.30,North,8,2.0,5.0,72,0.00,,,0.00,weatherlink.com 1.10,2013-01-07 00:01:00,
2013-01-06 19:16:00,32.0,23.0,30.31,North,355,2.0,12.0,70,0.00,,,0.00,weatherlink.com 1.10,2013-01-07 00:16:00,
2013-01-06 19:31:00,31.9,23.0,30.32,NW,305,3.0,11.0,70,0.00,,,0.00,weatherlink.com 1.10,2013-01-07 00:31:00,
2013-01-06 19:46:00,31.7,23.0,30.34,NNE,25,5.0,6.0,71,0.00,,,0.00,weatherlink.com 1.10,2013-01-07 00:46:00,
2013-01-06 20:01:00,31.5,23.0,30.34,WNW,300,3.0,8.0,71,0.00,,,0.00,weatherlink.com 1.10,2013-01-07 01:01:00,
2013-01-06 20:16:00,31.1,23.0,30.34,North,1,2.0,7.0,71,0.00,,,0.00,weatherlink.com 1.10,2013-01-07 01:16:00,
2013-01-06 20:31:00,30.4,23.0,30.34,NNW,333,0.0,2.0,73,0.00,,,0.00,weatherlink.com 1.10,2013-01-07 01:31:00,
2013-01-06 20:46:00,29.7,22.0,30.34,WNW,302,0.0,2.0,74,0.00,,,0.00,weatherlink.com 1.10,2013-01-07 01:46:00,
2013-01-06 21:01:00,29.4,22.0,30.34,NNE,15,0.0,3.0,75,0.00,,,0.00,weatherlink.com 1.10,2013-01-07 02:01:00,
2013-01-06 21:16:00,28.6,22.0,30.35,NNW,342,0.0,1.0,77,0.00,,,0.00,weatherlink.com 1.10,2013-01-07 02:16:00,
2013-01-06 21:31:00,28.5,22.0,30.36,NNE,19,0.0,1.0,78,0.00,,,0.00,weatherlink.com 1.10,2013-01-07 02:31:00,
2013-01-06 21:46:00,28.9,23.0,30.37,NE,49,0.0,4.0,77,0.00,,,0.00,weatherlink.com 1.10,2013-01-07 02:46:00,
2013-01-06 22:01:00,28.9,23.0,30.37,WNW,288,2.0,3.0,77,0.00,,,0.00,weatherlink.com 1.10,2013-01-07 03:01:00,
2013-01-06 22:16:00,28.8,22.0,30.38,NNW,345,0.0,5.0,76,0.00,,,0.00,weatherlink.com 1.10,2013-01-07 03:16:00,
2013-01-06 22:31:00,28.4,22.0,30.37,NNE,29,2.0,3.0,77,0.00,,,0.00,weatherlink.com 1.10,2013-01-07 03:31:00,
2013-01-06 22:46:00,28.0,22.0,30.38,NE,41,0.0,2.0,78,0.00,,,0.00,weatherlink.com 1.10,2013-01-07 03:46:00,
2013-01-06 23:01:00,27.4,22.0,30.38,NW,324,0.0,1.0,79,0.00,,,0.00,weatherlink.com 1.10,2013-01-07 04:01:00,
2013-01-06 23:16:00,27.4,22.0,30.38,North,350,0.0,3.0,79,0.00,,,0.00,weatherlink.com 1.10,2013-01-07 04:16:00,
2013-01-06 23:31:00,27.1,22.0,30.39,NNE,19,0.0,2.0,80,0.00,,,0.00,weatherlink.com 1.10,2013-01-07 04:31:00,
2013-01-06 23:46:00,26.7,21.0,30.39,North,4,0.0,1.0,80,0.00,,,0.00,weatherlink.com 1.10,2013-01-07 04:46:00,